This is the latest recevied weather packets stored in our database for station/object DB5ZQ. If no packets are shown the sender has not sent any weather packets the latest 10 day(s).
| Time | Temp. | Humidity | Pressure | Rain* | Wind** | Luminosity | Snow |
|---|---|---|---|---|---|---|---|
| 1787505086 | 26.67° C | 30% | 1019.2 hPa | 0 mm | - | - | - |
| 1787504786 | 26.67° C | 30% | 1019.2 hPa | 0 mm | - | - | - |
| 1787504485 | 26.67° C | 30% | 1019.3 hPa | 0 mm | - | - | - |
| 1787504185 | 26.67° C | 30% | 1019.2 hPa | 0 mm | - | - | - |
| 1787503885 | 26.67° C | 30% | 1019.4 hPa | 0 mm | - | - | - |
| 1787503584 | 26.67° C | 29% | 1019.4 hPa | 0 mm | - | - | - |
| 1787503284 | 27.22° C | 29% | 1019.4 hPa | 0 mm | - | - | - |
| 1787502984 | 27.78° C | 27% | 1019.4 hPa | 0 mm | - | - | - |
| 1787502683 | 28.33° C | 27% | 1019.4 hPa | 0 mm | - | - | - |
| 1787502383 | 28.33° C | 27% | 1019.3 hPa | 0 mm | - | - | - |
| 1787502083 | 28.89° C | 27% | 1019.4 hPa | 0 mm | - | - | - |
| 1787501783 | 28.33° C | 27% | 1019.3 hPa | 0 mm | - | - | - |
| 1787501482 | 28.89° C | 26% | 1019.3 hPa | 0 mm | - | - | - |
| 1787501182 | 28.33° C | 27% | 1019.3 hPa | 0 mm | - | - | - |
| 1787500882 | 28.33° C | 27% | 1019.2 hPa | 0 mm | - | - | - |
| 1787500582 | 28.89° C | 27% | 1019.2 hPa | 0 mm | - | - | - |
| 1787500281 | 29.44° C | 25% | 1019.2 hPa | 0 mm | - | - | - |
| 1787499981 | 30° C | 25% | 1019.2 hPa | 0 mm | - | - | - |
| 1787499681 | 29.44° C | 25% | 1019 hPa | 0 mm | - | - | - |
| 1787499380 | 29.44° C | 24% | 1019 hPa | 0 mm | - | - | - |
| 1787499080 | 29.44° C | 25% | 1019 hPa | 0 mm | - | - | - |
| 1787498780 | 29.44° C | 25% | 1019.2 hPa | 0 mm | - | - | - |
| 1787498479 | 30° C | 24% | 1019 hPa | 0 mm | - | - | - |
| 1787498179 | 30° C | 24% | 1019 hPa | 0 mm | - | - | - |
| 1787497879 | 29.44° C | 26% | 1018.9 hPa | 0 mm | - | - | - |
* Rain latest hour (hover to see other rain measurements)
** Current wind speed in m/s (hover to see current wind gust speed)